Regional Weather Roundup
Issued by NWS

Home | Current Version | Previous Version | Graphics & Text | Print | Product List | Glossary Off
Versions: 1 2 3 4 5 6 7 8 9 10 11 12 13 14 15 16 17 18 19 20 21 22 23 24 25 26 27 28 29 30 31 32 33 34 35 36 37 38 39 40 41 42 43 44 45 46 47 48 49 50

712
ASUS43 KMKX 272011
RWRWI

WISCONSIN REGIONAL WEATHER ROUNDUP
NATIONAL WEATHER SERVICE MILWAUKEE/SULLIVAN WI
300 PM CDT THU JUL 27 2017

NOTE: "FAIR" INDICATES FEW OR NO CLOUDS BELOW 12,000 FEET WITH NO
SIGNIFICANT WEATHER AND/OR OBSTRUCTIONS TO VISIBILITY.

WIZ001-002-006>008-014>016-023>028-272100-
NORTHWEST WISCONSIN

CITY           SKY/WX    TMP DP  RH WIND       PRES   REMARKS
SUPERIOR ARPT  NOT AVBL
ASHLAND        MOSUNNY   80  61  52 N9        30.09S HX  81
HAYWARD        PTSUNNY   81  56  42 N12G17    30.09S HX  81
SIREN          PTSUNNY   81  56  41 NW5       30.08F HX  81
CUMBERLAND     PTSUNNY   77  55  47 N7        30.08F
RICE LAKE      PTSUNNY   82  56  40 N7        30.09S HX  81
CHETEK         CLOUDY    79  60  50 CALM      30.07S HX  80
LADYSMITH      PTSUNNY   81  58  45 W7        30.08F HX  81
EAU CLAIRE     SUNNY     84  57  39 NE9       30.04F HX  83
MENOMONIE      SUNNY     83  55  38 NE7       30.06S HX  82
NEW RICHMOND   MOSUNNY   82  56  41 NE9       30.07S HX  82
OSCEOLA        MOSUNNY   82  55  39 NW7       30.10S HX  81
$$

WIZ003>005-009-010-017-018-272100-
NORTH CENTRAL WISCONSIN

CITY           SKY/WX    TMP DP  RH WIND       PRES   REMARKS
MANITOWISH WTR CLOUDY    76  57  52 N9        30.09R
ARBOR VITAE    MOSUNNY   77  57  49 SE3       30.08R
WOODRUFF       MOSUNNY   77  57  49 SE3       30.08R
RHINELANDER    CLOUDY    79  56  45 N6        30.08S HX  80
EAGLE RIVER    CLOUDY    78  55  44 E5        30.08S
LAND O LAKES   CLOUDY    78  53  41 NE6       30.10R
PHILLIPS       PTSUNNY   78  57  48 N5        30.07F
TOMAHAWK         N/A     79  56  44 CALM      30.07S
MEDFORD        CLOUDY    78  59  53 N6        30.07R
MERRILL        MOSUNNY   81  59  47 N3        30.06S HX  81
$$

WIZ029-030-035-036-043>047-272100-
CENTRAL WISCONSIN

CITY           SKY/WX    TMP DP  RH WIND       PRES   REMARKS
WAUSAU         PTSUNNY   80  58  46 S6        30.03F HX  80
MOSINEE        MOSUNNY   79  57  47 E3        30.06S HX  80
MARSHFIELD     PTSUNNY   79  58  48 E5        30.04F HX  80
STEVENS POINT  PTSUNNY   79  58  48 E6        30.04F HX  80
WAUPACA        SUNNY     85  57  39 NE5       30.03S HX  84
WAUTOMA        LGT RAIN  82  62  50 E10G16    30.02  HX  83
WISC RAPIDS    MOSUNNY   83  61  47 VRB6      30.04F HX  83
CAMP DOUGLAS   PTSUNNY   82  61  47 NE7       30.02S HX  83
$$

WIZ011>013-019>022-031-037>040-048>050-272100-
NORTHEAST WISCONSIN

CITY           SKY/WX    TMP DP  RH WIND       PRES   REMARKS
ANTIGO         CLOUDY    76  59  55 E6        30.07S
SHAWANO        SUNNY     83  58  42 NE5       30.03S HX  82
OCONTO         SUNNY     78  60  53 E8        30.02S
STURGEON BAY     N/A     77  60  55 MISG      30.03F
GREEN BAY      SUNNY     79  58  48 NE14      30.03S HX  80
MANITOWOC      SUNNY     75  56  51 NE10G20   30.02S
APPLETON       MOSUNNY   79  52  38 MISG      30.02S
CLINTONVILLE   MOSUNNY  N/A N/A N/A E3        30.03S
OSHKOSH        SUNNY     80  61  52 NE7       30.02R HX  81
$$

WIZ032>034-041-042-053>061-272100-
SOUTHWEST WISCONSIN

CITY           SKY/WX    TMP DP  RH WIND       PRES   REMARKS
LA CROSSE      PTSUNNY   86  64  47 W9        30.01F HX  87
SPARTA         PTSUNNY   81  60  48 N7        30.03S HX  82
VIROQUA        MOSUNNY   81  62  53 N6        30.04S HX  82
BOSCOBEL       MOSUNNY   83  60  45 VRB6      30.01S HX  83
PRAIRIE DU CHI SUNNY     82  58  44 N9        30.00S HX  82
PLATTEVILLE    MOSUNNY   81  65  58 N12       30.01S HX  83
$$

WIZ056-057-062-063-064-067-068-272100-
SOUTH CENTRAL WISCONSIN

CITY           SKY/WX    TMP DP  RH WIND       PRES   REMARKS
REEDSBURG      MOSUNNY   82  62  51 E6        30.01S HX  82
BARABOO/DELLS  SUNNY     82  58  43 N5        30.02S HX  81
LONE ROCK      MOSUNNY   83  62  49 N8        30.00S HX  84
MINERAL POINT  MOSUNNY   82  59  44 NE9       30.02S HX  82
MADISON        PTSUNNY   82  62  50 N13       30.00S HX  83
MIDDLETON      MOSUNNY   82  61  49 E7G16     30.01S HX  83
WATERTOWN      PTSUNNY   78  63  60 N9        29.99S HX  80
MONROE         MOSUNNY   79  63  57 NE9       29.99F HX  80
JANESVILLE     MOSUNNY   82  63  51 NE12      29.98S HX  83
$$

WIZ051-052-058>065-066-070>072-272100-
SOUTHEAST WISCONSIN

CITY           SKY/WX    TMP DP  RH WIND       PRES   REMARKS
MILWAUKEE      MOSUNNY   77  59  53 N16       29.99S
WAUKESHA       MOSUNNY   79  57  47 NE12G18   30.01R HX  80
MILWAUKEE/TIMM SUNNY     79  54  41 NE14G22   30.01R
RACINE         SUNNY     76  64  66 N17G25    30.00R
KENOSHA        SUNNY     80  61  52 NE14G20   29.98S HX  81
FOND DU LAC    SUNNY     82  59  45 NE10      30.02R HX  82
SHEBOYGAN      SUNNY     77  60  55 NE14G22   30.02R
WEST BEND      SUNNY     77  54  44 NE14G22   30.01S
JUNEAU         MOSUNNY   79  62  56 N7        30.02S HX  80
$$

LSZ147-162-272100-
LAKE SUPERIOR

STATION/POSITION TIME  TEMP    WIND        PRES    WAVE
                       AIR SEA DIR/SP/G            HT/PER
                 (UTC) (F)     (DEG/KT/KT) (MB)    (FT/S)
W MID LAKE BUOY  1950   56 54   40/  6/  8 1019.2F   0
DEVILS ISLAND    2000   62      70/  9/ 10 1019.2F
SAXON HARBOR     1940   71      20/  4/  4 1019.0R
$$

LMZ867-665-643>646-272100-
LAKE MICHIGAN

STATION/POSITION TIME  TEMP    WIND        PRES    WAVE
                       AIR SEA DIR/SP/G            HT/PER
                 (UTC) (F)     (DEG/KT/KT) (MB)    (FT/S)
CHAMBERS ISLAND  1940   73      70/  5/  8 1016.3S
S GREEN BAY BUOY 2000   73 72   70/ 12/ 14 1016.5R
N MID LAKE BUOY  1950   67 69  330/  4/  4 1017.0F   1/ 3
NORTHPORT PIER   1940   74     320/  5/  6 1016.3F
KEWAUNEE LAKESHO 1948   73      10/  4/  7 1016.1F
SHEBOYGAN LAKESH 2000   69      10/ 16/ 18 1015.8S
PORT WASHINGTON  1930   78      40/ 13/ 20 1016.6R
ATWATER BUOY     1939   70 69  360/ 14/ 17 1016.0R
MILWAUKEE LAKESH 1950   72      20/ 15/ 20   N/A
S MID LAKE BUOY  1950   70 71   10/ 16/ 19 1013.8F   2/ 3
KENOSHA   LAKESH 2000   72      10/ 21/ 23 1014.6
$$

TC  - TEMPERATURE IN CELSIUS
VSB - VISIBILITY IN STATUTE MILES
WCI - WIND CHILL INDEX
HX  - HEAT INDEX





USA.gov is the U.S. government's official web portal to all federal, state and local government web resources and services.